Volver al catálogo

STARLINK-6235

ActivoComunicacionesVLEO
NORAD 57094·PAYLOAD·🇺🇸 United States

Lanzado Jun 22, 2023 desde Vandenberg Space Force Base

Loading…

Próximos Pases (próximas 24 horas)

TLE

ActualizadoSource: CelesTrak SupGP

Época: Sep 15, 2026, 02:45 UTC

1 57094C 23088AY  26258.11506944  .00027048  00000+0  97956-3 0  2586
2 57094  42.9999 106.3340 0001520 266.5740 344.0913 15.27568817    19

Sigue STARLINK-6235 en tiempo real con AllMySat

Download on the App Store